{"data":{"norad_id":58767,"epoch":"2026-09-19T06:56:39.747552Z","epoch_age_seconds":257191,"freshness":"STALE","line1":"1 58767U 24011C   26262.28934893  .00000600  00000+0  28888-4 0  9998","line2":"2 58767  53.1624 191.4233 0001219  79.6102 280.5038 15.34393519149954","mean_motion":15.34393519,"eccentricity":0.0001219,"inclination_deg":53.1624,"raan_deg":191.4233,"arg_perigee_deg":79.6102,"mean_anomaly_deg":280.5038,"bstar":2.8888e-5,"rev_number":14995,"period_min":93.848154477248,"perigee_km":461.88860239928,"apogee_km":463.55640394615,"semimajor_km":6840.8595031727,"source":"CELESTRAK","updated_at":"2026-09-21T09:00:33.957032Z"}}